星链-36243(STARLINK-36243)

导读

STARLINK-36243是美国于2025年12月14日发射的星链卫星,隶属于SpaceX打造的星链星座网络。该星座旨在为全球用户提供低延迟、高速率的宽带互联网服务,覆盖偏远地区与网络基础设施匮乏区域。此次发射延续了星链星座的组网节奏,进一步扩充了星座规模,推进全球卫星互联网覆盖的部署进程。

Basic Information
目录编号:
67077
目录名称:
STARLINK-36243
国际标识:
2025-298C
轨道中心:
EARTH
卫星名称:
星链-36243
卫星全名:
星链-36243(STARLINK-36243)
卫星状态:
在轨 (已飞行181 天)
发射日期:
2025-12-14 UTC
国别 :
美国 (US)
星等 :
--
Orbit Information
数据来源 国际轨道数据 AOE轨道数据
星历时间 2026-06-12T15:02:02+0800
1天前
查看轨道信息
2026-06-13T06:00:00+0800
9小时前
查看轨道信息
半长轴 6950.208km 6950.227km
偏心率 0.0003699 0.0003616
轨道倾角 70.000° 70.000°
近地点辐角 278.973° 273.922°
升交点赤经 136.102° 134.531°
平近点角 81.101° 208.766°
近地点 569.5km 569.576km
远地点 574.642km 574.604km
周期 96.107分钟 96.108分钟
每日圈数 14.983254 14.983191
Detailed Information
固有亮度:
5
最大亮度:
2.5
卫星平台:
Starlink V1.0
覆盖范围:
全球
运营商:
太空探索技术公司
运营商所在国:
美国
制造商(研发单位):
太空探索技术公司
制造商所在国:
美国
使用方式:
暂无
Satellite Introduction
Starlink 计划是 SpaceX 推出的全球卫星互联网项目,通过发射低轨道卫星,为全球尤其是偏远地区提供高速、低延迟的互联网服务。自 2019 年起,Starlink 已部署数千颗卫星,旨在缩小全球数字鸿沟,推动互联网普及。该项目还为军事、航空等行业提供通信支持,带来广泛经济效益。
2D Orbit Map
3D Orbit Map
Orbit Altitude Analysis Chart
Orbit Inclination Analysis Chart
Orbit Comprehensive Analysis Chart
View Comprehensive Chart